KE8CZD Weather Reports


Display with metric or nautical units.
time (UTC)temp
F
wind
direction
speed
MPH
gust
MPH
rain 1hr
in
rain 24hr
in
rain mn
in
humidity
%
barometer
mb
20260506134244 47 327 0.0 2.0 0.00 0.00 0.00 57 1008.5
20260506133644 47 357 0.0 5.0 0.00 0.00 0.00 58 1008.5
20260506133044 47 37 1.0 7.0 0.00 0.00 0.00 59 1008.5
20260506132444 47 311 0.0 5.0 0.00 0.00 0.00 62 1008.4
20260506131844 47 63 0.0 5.0 0.00 0.00 0.00 63 1008.2
20260506131244 47 41 0.0 5.0 0.00 0.00 0.00 66 1008.2
20260506130646 46 17 1.0 7.0 0.00 0.00 0.00 68 1008.3
20260506130044 47 40 0.0 7.0 0.00 0.00 0.00 71 1008.2
20260506125444 46 13 0.0 2.0 0.00 0.00 0.00 73 1008.0
20260506124846 46 308 0.0 5.0 0.00 0.00 0.00 73 1007.8
20260506124244 46 289 0.0 2.0 0.00 0.00 0.00 73 1007.8
20260506123644 46 311 0.0 5.0 0.00 0.00 0.00 74 1007.9
20260506123044 46 21 0.0 5.0 0.00 0.00 0.00 74 1007.9
20260506122444 46 322 0.0 2.0 0.00 0.00 0.00 75 1007.7
20260506121845 45 0 0.0 0.0 0.00 0.00 0.00 75
20260506121244 45 267 0.0 2.0 0.00 0.00 0.00 74 1007.7
20260506120644 45 273 0.0 2.0 0.00 0.00 0.00 73 1007.8
20260506120045 45 309 0.0 2.0 0.00 0.00 0.00 72 1007.8
20260506115445 46 353 0.0 2.0 0.00 0.00 0.00 72 1007.4
20260506114845 46 37 0.0 2.0 0.00 0.00 0.00 72 1007.3
20260506114244 46 44 0.0 2.0 0.00 0.00 0.00 74 1007.3
20260506113644 45 0 0.0 0.0 0.00 0.00 0.00 76 1007.3
20260506113045 44 0 0.0 0.0 0.00 0.00 0.00 76 1007.3
20260506112445 44 0 0.0 0.0 0.00 0.00 0.00 75 1007.3
20260506111844 44 0 0.0 0.0 0.00 0.00 0.00 74 1007.3
20260506111244 44 0 0.0 0.0 0.00 0.00 0.00 73 1007.1
20260506110644 44 0 0.0 0.0 0.00 0.00 0.00 73 1007.1
20260506110044 44 0 0.0 0.0 0.00 0.00 0.00 72 1007.0
20260506105444 44 0 0.0 0.0 0.00 0.00 0.00 70 1006.8
20260506104844 44 0 0.0 0.0 0.00 0.00 0.00 69 1006.7
20260506104244 45 0 0.0 0.0 0.00 0.00 0.00 69
20260506103644 45 0 0.0 0.0 0.00 0.00 0.00 68 1006.6
20260506103045 45 0 0.0 0.0 0.00 0.00 0.00 67 1006.6
20260506102444 45 0 0.0 0.0 0.00 0.00 0.00 65 1006.6
20260506101844 45 0 0.0 0.0 0.00 0.00 0.00 64 1006.7
20260506100645 45 296 0.0 2.0 0.00 0.00 0.00 62 1006.5
20260506100044 46 272 0.0 2.0 0.00 0.00 0.00 62 1006.2
20260506095444 46 316 0.0 2.0 0.00 0.00 0.00 61 1006.1
20260506094844 46 0 0.0 0.0 0.00 0.00 0.00 61 1005.9
20260506094244 46 0 0.0 0.0 0.00 0.00 0.00 61 1005.8
20260506093644 46 338 0.0 2.0 0.00 0.00 0.00 60 1005.8
20260506093044 46 0 0.0 0.0 0.00 0.00 0.00 59 1005.8
20260506092444 46 0 0.0 0.0 0.00 0.00 0.00 59 1005.9
20260506091844 46 287 0.0 2.0 0.00 0.00 0.00 58 1006.0
20260506091246 46 297 0.0 2.0 0.00 0.00 0.00 58 1005.8
20260506090644 46 0 0.0 0.0 0.00 0.00 0.00 57 1005.8
20260506090044 46 0 0.0 0.0 0.00 0.00 0.00 57 1005.7
20260506085444 46 0 0.0 0.0 0.00 0.00 0.00 56 1005.5
20260506084844 46 305 0.0 2.0 0.00 0.00 0.00 56 1005.7
20260506084244 47 0 0.0 0.0 0.00 0.00 0.00 55 1005.6
20260506083644 47 324 0.0 2.0 0.00 0.00 0.00 55 1005.7
20260506083044 47 0 0.0 0.0 0.00 0.00 0.00 55 1005.7
20260506082444 47 0 0.0 0.0 0.00 0.00 0.00 54 1005.6
20260506081844 47 39 0.0 2.0 0.00 0.00 0.00 54 1005.7
20260506080644 47 274 0.0 2.0 0.00 0.00 0.00 53 1005.8
20260506073044 48 284 0.0 2.0 0.00 0.00 0.00 51 1005.6
20260506072444 48 0 0.0 0.0 0.00 0.00 0.00 51 1005.5
20260506071844 48 279 0.0 2.0 0.00 0.00 0.00 51 1005.4
20260506071244 48 272 0.0 5.0 0.00 0.00 0.00 51 1005.5
20260506070644 48 0 0.0 0.0 0.00 0.00 0.00 51 1005.6
20260506062444 48 0 0.0 0.0 0.00 0.00 0.00 51 1005.7
20260506061844 48 270 0.0 5.0 0.00 0.00 0.00 51 1005.9
20260506061244 48 269 0.0 2.0 0.00 0.00 0.00 51 1005.9
20260506060645 48 280 0.0 2.0 0.00 0.00 0.00 51 1005.8
20260506050643 49 0 0.0 0.0 0.00 0.00 0.00 49 1005.7
20260506044844 49 269 0.0 2.0 0.00 0.00 0.00 48 1005.5
20260506044247 49 272 0.0 2.0 0.00 0.00 0.00 48 1005.4
20260506043644 49 270 0.0 2.0 0.00 0.00 0.00 48 1005.5
20260506043045 49 283 0.0 2.0 0.00 0.00 0.00 49 1005.5
20260506042444 49 287 0.0 2.0 0.00 0.00 0.00 48 1005.5
20260506041843 49 273 0.0 2.0 0.00 0.00 0.00 49 1005.6
20260506041244 49 0 0.0 0.0 0.00 0.00 0.00 49 1005.4
20260506040643 49 274 0.0 2.0 0.00 0.00 0.00 48 1005.4
20260506040044 49 280 0.0 2.0 0.00 0.00 0.00 48 1005.2
20260506035444 50 0 0.0 0.0 0.00 0.00 0.00 48 1005.5
20260506034844 50 0 0.0 0.0 0.00 0.00 0.00 47 1005.5
20260506034246 50 0 0.0 0.0 0.00 0.00 0.00 46 1005.5
20260506033644 50 0 0.0 0.0 0.00 0.00 0.00 46 1005.6
20260506033043 50 0 0.0 0.0 0.00 0.00 0.00 46 1005.7
20260506032444 50 0 0.0 0.0 0.00 0.00 0.00 46 1005.5
20260506031844 50 0 0.0 0.0 0.00 0.00 0.00 45 1005.7
20260506031243 50 0 0.0 0.0 0.00 0.00 0.00 45 1005.5
20260506030643 50 0 0.0 0.0 0.00 0.00 0.00 44 1005.5
20260506030044 50 0 0.0 0.0 0.00 0.00 0.00 44 1005.5
20260506025443 50 0 0.0 0.0 0.00 0.00 0.00 43 1005.6
20260506024843 50 271 0.0 2.0 0.00 0.00 0.00 43 1005.5
20260506024244 50 0 0.0 0.0 0.00 0.00 0.00 43 1005.7
20260506023643 50 268 0.0 2.0 0.00 0.00 0.00 43 1005.7
20260506023043 50 272 0.0 2.0 0.00 0.00 0.00 42 1005.4
20260506022443 50 269 0.0 2.0 0.00 0.00 0.00 41 1005.4
20260506021843 50 278 0.0 2.0 0.00 0.00 0.00 41 1005.5
20260506021244 51 249 0.0 2.0 0.00 0.00 0.00 42 1005.5
20260506020644 50 0 0.0 0.0 0.00 0.00 0.00 42 1005.6
20260506020044 50 0 0.0 0.0 0.00 0.00 0.00 42 1005.5
20260506014845 51 0 0.0 0.0 0.00 0.00 0.00 41 1005.1
20260506014245 51 265 0.0 2.0 0.00 0.00 0.00 39 1005.1
20260506013643 51 0 0.0 0.0 0.00 0.00 0.00 39 1005.1
20260506013044 51 0 0.0 0.0 0.00 0.00 0.00 38 1004.9
20260506012444 51 0 0.0 0.0 0.00 0.00 0.00 37 1004.9
20260506011843 51 279 0.0 2.0 0.00 0.00 0.00 35
20260506011243 51 281 0.0 2.0 0.00 0.00 0.00 35 1004.8
20260506010643 51 275 1.0 5.0 0.00 0.00 0.00 35 1004.7
20260506010044 51 280 0.0 2.0 0.00 0.00 0.00 35
20260506005443 52 306 0.0 2.0 0.00 0.00 0.00 35 1004.9
20260506004843 52 0 0.0 0.0 0.00 0.00 0.00 35 1004.8
20260506004243 52 309 0.0 2.0 0.00 0.00 0.00 33
20260506003644 52 269 0.0 2.0 0.00 0.00 0.00 33 1004.7
20260506003043 52 274 0.0 2.0 0.00 0.00 0.00 33 1004.7
20260506002443 52 294 0.0 2.0 0.00 0.00 0.00 33 1004.7
20260506001843 52 272 0.0 2.0 0.00 0.00 0.00 33
20260506001243 52 267 0.0 5.0 0.00 0.00 0.00 33 1004.6
20260506000644 53 275 1.0 5.0 0.00 0.00 0.00 33
20260506000046 53 272 1.0 5.0 0.00 0.00 0.00 34 1004.6
20260505235444 53 267 0.0 5.0 0.00 0.00 0.00 39 1004.2
20260505234845 53 270 1.0 7.0 0.00 0.00 0.00 42 1004.1
20260505234244 53 292 0.0 2.0 0.00 0.00 0.00 41 1004.1
20260505233644 53 276 0.0 5.0 0.00 0.00 0.00 41 1004.2
20260505233044 53 291 0.0 2.0 0.00 0.00 0.00 41 1004.0
20260505232445 53 295 0.0 2.0 0.00 0.00 0.00 39 1004.0
20260505231844 53 278 1.0 5.0 0.00 0.00 0.00 39 1004.0
20260505231245 53 289 0.0 5.0 0.00 0.00 0.00 39 1004.0
20260505230644 54 296 0.0 5.0 0.00 0.00 0.00 39 1004.1
20260505230045 54 275 0.0 5.0 0.00 0.00 0.00 39 1004.0
20260505225445 54 267 0.0 5.0 0.00 0.00 0.00 39 1004.1
20260505224845 54 294 0.0 5.0 0.00 0.00 0.00 40 1004.1
20260505224245 54 277 0.0 5.0 0.00 0.00 0.00 41 1004.2
20260505223644 54 278 0.0 5.0 0.00 0.00 0.00 42 1004.2
20260505223044 54 272 0.0 5.0 0.00 0.00 0.00 43
20260505222444 54 292 0.0 2.0 0.00 0.00 0.00 41 1004.2
20260505221844 54 273 0.0 5.0 0.00 0.00 0.00 41 1004.0
20260505221244 54 275 1.0 5.0 0.00 0.00 0.00 42 1004.1
20260505220644 54 297 0.0 5.0 0.00 0.00 0.00 44 1004.0
20260505220045 54 260 0.0 5.0 0.00 0.00 0.00 46 1004.0
20260505215444 54 307 1.0 7.0 0.00 0.00 0.00 49 1004.2
20260505214844 55 289 0.0 2.0 0.00 0.00 0.00 51 1004.1
20260505214244 55 235 0.0 5.0 0.00 0.00 0.00 52 1004.0
20260505213645 55 282 1.0 5.0 0.00 0.00 0.00 53 1004.0
20260505213045 55 283 0.0 5.0 0.00 0.00 0.00 53 1003.9
20260505212445 55 330 0.0 7.0 0.00 0.00 0.00 57 1003.9
20260505211845 55 274 1.0 7.0 0.00 0.00 0.00 60 1004.0
20260505211244 54 251 0.0 2.0 0.00 0.00 0.00 64 1004.1
20260505210644 54 276 0.0 2.0 0.00 0.00 0.00 66 1004.1
20260505210044 54 277 0.0 5.0 0.00 0.00 0.00 67 1004.1
20260505205444 54 0 0.0 0.0 0.00 0.00 0.00 67 1004.2
20260505204844 54 268 0.0 2.0 0.00 0.00 0.00 67 1004.2
20260505204244 54 270 0.0 5.0 0.00 0.00 0.00 67 1004.2
20260505203644 54 107 0.0 2.0 0.00 0.00 0.00 68 1004.2
20260505203044 54 286 0.0 5.0 0.00 0.00 0.00 68 1004.1
20260505202444 54 106 0.0 2.0 0.00 0.00 0.00 69 1004.1
20260505201844 54 208 0.0 5.0 0.00 0.00 0.00 68 1004.1
20260505201244 54 182 1.0 5.0 0.00 0.00 0.00 68 1004.0
20260505200645 54 251 0.0 2.0 0.00 0.00 0.00 69 1004.1
20260505200044 54 145 0.0 5.0 0.00 0.00 0.00 69 1004.2
20260505195444 53 272 1.0 7.0 0.00 0.00 0.00 70 1004.2
20260505194844 54 261 0.0 5.0 0.00 0.00 0.00 70 1004.3
20260505194245 53 285 0.0 5.0 0.00 0.00 0.00 71 1004.3
20260505193644 53 150 1.0 5.0 0.00 0.00 0.00 71 1004.3
20260505193045 53 163 0.0 2.0 0.00 0.00 0.00 71 1004.3
20260505192444 53 121 0.0 2.0 0.00 0.00 0.00 72 1004.4
20260505191845 53 199 0.0 5.0 0.00 0.00 0.00 72 1004.3
20260505191244 53 184 1.0 5.0 0.00 0.00 0.00 71 1004.4
20260505190644 54 224 1.0 5.0 0.00 0.00 0.00 70 1004.5
20260505190044 54 152 0.0 2.0 0.00 0.00 0.00 70 1004.4
20260505185444 54 117 0.0 2.0 0.00 0.00 0.00 68 1004.3
20260505184844 54 274 1.0 5.0 0.00 0.00 0.00 70 1004.1
20260505184245 54 183 1.0 5.0 0.00 0.00 0.00 70 1004.2
20260505183644 55 193 2.0 7.0 0.00 0.00 0.00 71 1003.9
20260505183046 55 182 0.0 5.0 0.00 0.00 0.00 71 1003.9
20260505182444 55 209 1.0 7.0 0.00 0.00 0.00 71 1003.7
20260505181844 55 286 1.0 7.0 0.00 0.00 0.00 71 1003.5
20260505181245 55 220 2.0 5.0 0.00 0.00 0.00 72 1003.6
20260505180644 55 177 2.0 5.0 0.00 0.00 0.00 72 1003.6
20260505180045 54 129 0.0 5.0 0.00 0.00 0.00 72 1003.6
20260505175445 54 193 0.0 2.0 0.00 0.00 0.00 72 1003.5
20260505174844 54 183 1.0 7.0 0.00 0.00 0.00 72 1003.4
20260505174245 54 147 1.0 7.0 0.00 0.00 0.00 72 1003.5
20260505173644 53 135 0.0 5.0 0.00 0.00 0.00 71 1003.6
20260505173044 53 206 0.0 5.0 0.00 0.00 0.00 70 1003.5
20260505172444 54 288 0.0 7.0 0.00 0.00 0.00 71 1003.3
20260505171844 53 14 0.0 2.0 0.00 0.00 0.00 72 1003.3
20260505171244 53 284 1.0 5.0 0.00 0.00 0.00 74 1003.5
20260505170645 53 194 1.0 5.0 0.00 0.00 0.00 77 1003.5
20260505170045 52 240 0.0 2.0 0.00 0.00 0.00 79 1003.7
20260505165444 52 86 0.0 5.0 0.00 0.00 0.00 79 1003.8
20260505164844 51 219 0.0 2.0 0.00 0.00 0.00 79 1003.9
20260505164244 52 284 0.0 5.0 0.00 0.00 0.00 80 1004.0
20260505163644 52 325 0.0 5.0 0.00 0.00 0.00 79 1004.1
20260505163044 51 0 0.0 0.0 0.00 0.00 0.00 78 1004.1
20260505162444 51 288 0.0 5.0 0.00 0.00 0.00 74 1004.0
20260505161844 52 268 0.0 2.0 0.00 0.00 0.00 73 1004.0
20260505161244 52 251 0.0 2.0 0.00 0.00 0.00 74 1004.1
20260505160645 52 214 0.0 2.0 0.00 0.00 0.00 72 1003.9
20260505153044 56 298 1.0 5.0 0.00 0.00 0.00 60 1003.4
20260505152444 56 290 1.0 5.0 0.00 0.00 0.00 59 1002.9
20260505151244 56 275 1.0 5.0 0.00 0.00 0.00 58 1002.5
20260505150644 57 275 0.0 5.0 0.00 0.00 0.00 57 1002.6
20260505140644 59 299 0.0 2.0 0.00 0.00 0.00 54 1001.9